Home   Weather   Besançon   Past weeks

Flag for France Past Weather in Besançon, Franche-Comté, France — Yesterday and Last 2 Weeks

Now
37 °F

Passing clouds.


Feels Like: 35 °F
Forecast: 26 / 44 °F
Wind: 3 mph from East

Location: Dole Tavaux

Current Time: Dec 3, 2016 at 1:38:27 am

Latest Report: Dec 3, 2016 at 1:00 am


Visibility: N/A

Pressure: 30.07 "Hg

Humidity: 87%

Dew Point: 34 °F

Location of BesançonLocation

Past Weather in Besançon — Graph

°F

Besançon Temperature Yesterday

Maximum temperature yesterday: 43 °F (at 2:30 pm)
Minimum temperature yesterday: 25 °F (at 2:00 am)
Average temperature yesterday: 35 °F

High & Low Weather Summary for the Past Weeks

 TemperatureHumidityPressure
High61 °F (Nov 20, 3:00 pm)100% (Nov 19, 1:00 am)30.57 "Hg (Nov 19, 1:00 am)
Low23 °F (Nov 30, 6:00 am)49% (Nov 28, 2:00 pm)29.53 "Hg (Nov 21, 7:00 am)
Average43 °F84%29.99 "Hg
* Reported Nov 18 12:00 am — Dec 3 12:30 am, Besançon, Weather by CustomWeather, © 2016

Note: Actual official high and low records may vary slightly from our data, if they occured in-between our weather recording intervals... More about our weather records

Advertising

Besançon Weather History for the Previous 24 Hours

Scroll right to see more
 ConditionsComfort  
Time TempWeatherWind HumidityBarometerVisibility
12:30 am
Sat, Dec 3
37 °FClear.10 mph87%30.07 "Hg10 mi
12:00 am37 °FClear.14 mph87%30.07 "Hg10 mi
11:30 pm
Fri, Dec 2
39 °FClear.13 mph81%30.07 "Hg10 mi
11:00 pm39 °FClear.12 mph81%30.07 "Hg10 mi
10:30 pm36 °FClear.8 mph87%30.07 "Hg6 mi
10:00 pm36 °FClear.9 mph93%30.07 "Hg6 mi
9:30 pm36 °FClear.10 mph87%30.09 "Hg6 mi
9:00 pm36 °FClear.14 mph93%30.09 "Hg6 mi
8:30 pm37 °FClear.13 mph87%30.09 "Hg10 mi
8:00 pm37 °FClear.13 mph87%30.09 "Hg10 mi
7:30 pm39 °FClear.15 mph87%30.09 "Hg6 mi
7:00 pm39 °FClear.14 mph87%30.09 "Hg10 mi
6:30 pm39 °FClear.14 mph87%30.09 "Hg10 mi
6:00 pm41 °FClear.12 mph81%30.09 "Hg10 mi
5:30 pm41 °FSunny.13 mph81%30.09 "Hg10 mi
5:00 pm41 °FSunny.14 mph81%30.09 "Hg10 mi
4:30 pm43 °FSunny.13 mph71%30.09 "Hg10 mi
4:00 pm43 °FSunny.12 mph71%30.09 "Hg10 mi
3:30 pm43 °FSunny.12 mph76%30.09 "Hg10 mi
3:00 pm43 °FSunny.12 mph76%30.12 "Hg10 mi
2:30 pm43 °FSunny.10 mph71%30.12 "Hg10 mi
2:00 pm41 °FSunny.10 mph76%30.12 "Hg10 mi
1:30 pm41 °FClear.9 mph76%30.15 "Hg6 mi
1:00 pm39 °FClear.10 mph81%30.15 "Hg6 mi
12:30 pm39 °FClear.12 mph75%30.18 "Hg5 mi
12:00 pm39 °FClear.13 mph75%30.18 "Hg5 mi
11:30 am37 °FClear.13 mph81%30.18 "Hg4 mi
11:00 am36 °FClear.9 mph87%30.21 "Hg6 mi
10:30 am34 °FClear.8 mph87%30.21 "Hg4 mi
10:00 am34 °FClear.7 mph87%30.21 "Hg4 mi
9:30 am32 °FIce fog.5 mph93%30.21 "Hg3 mi
9:00 am32 °FIce fog.5 mph93%30.24 "Hg3 mi
8:30 am30 °FIce fog.5 mph100%30.24 "Hg3 mi
8:00 am30 °FIce fog.3 mph100%30.24 "Hg3 mi
7:30 am32 °FPassing clouds.6 mph93%30.24 "Hg4 mi
7:00 am32 °FPassing clouds.7 mph93%30.24 "Hg4 mi
6:30 am34 °FLow clouds.6 mph93%30.24 "Hg4 mi
6:00 am34 °FLow clouds.8 mph93%30.24 "Hg4 mi
5:30 am32 °FLow clouds.8 mph100%30.24 "Hg4 mi
5:00 am32 °FLow clouds.10 mph93%30.24 "Hg4 mi
4:30 am32 °FIce fog.8 mph93%30.24 "Hg3 mi
4:00 am30 °FPassing clouds.7 mph93%30.27 "Hg4 mi
3:30 am27 °FClear.3 mph93%30.27 "Hg10 mi
3:00 am25 °FClear.2 mph93%30.27 "Hg4 mi
2:30 am27 °FClear.2 mph86%30.27 "Hg4 mi
2:00 am25 °FClear.3 mph93%30.27 "Hg5 mi
1:30 am27 °FClear.1 mph86%30.27 "Hg4 mi
1:00 am27 °FClear.2 mph86%30.27 "Hg5 mi
Weather by CustomWeather, © 2016

See weather overviewHow to use our weather pages